FW9934 Weather Reports


Display with metric or nautical units.
time (UTC)temp
F
wind
direction
speed
MPH
gust
MPH
rain 1hr
in
rain 24hr
in
rain mn
in
humidity
%
barometer
mb
20260506061101 46 91 0.0 0.0 0.00 0.11 0.11 98 1060.0
20260506051051 47 90 0.0 0.0 0.00 0.11 0.11 98 1059.7
20260506044046 46 84 0.0 0.0 0.00 0.11 0.11 98 1059.4
20260506042546 47 94 0.0 0.0 0.00 0.11 0.11 98 1059.5
20260506041044 47 94 0.0 0.0 0.00 0.11 0.11 98 1059.4
20260506035541 47 77 0.0 0.0 0.00 0.11 0.11 98 1059.0
20260506034037 47 77 0.0 0.0 0.00 0.11 0.11 98 1058.9
20260506032535 47 77 0.0 0.0 0.00 0.11 0.11 98 1058.7
20260506031032 47 77 0.0 0.0 0.00 0.10 0.10 98 1058.5
20260506025530 47 77 0.0 0.0 0.00 0.10 0.10 98 1058.4
20260506024025 47 77 0.0 0.0 0.00 0.10 0.10 98 1058.4
20260506022523 47 77 0.0 0.0 0.00 0.10 0.10 98 1058.1
20260506021020 47 77 0.0 0.0 0.00 0.10 0.10 98 1058.1
20260506015518 47 77 0.0 0.0 0.00 0.10 0.10 98 1058.1
20260506014014 47 77 0.0 0.0 0.00 0.10 0.10 98 1058.1
20260506012511 47 77 0.0 0.0 0.00 0.10 0.10 98 1058.2
20260506011007 47 77 0.0 0.0 0.00 0.10 0.10 98 1058.0
20260506005506 47 77 0.0 0.0 0.00 0.10 0.10 98 1057.9
20260506004001 47 77 0.0 0.0 0.00 0.10 0.10 98 1057.6
20260506002456 47 77 0.0 0.0 0.00 0.10 0.10 98 1057.8
20260506000952 46 77 0.0 0.0 0.00 0.10 0.10 98 1057.6
20260505235450 46 78 0.0 0.0 0.00 0.10 0.10 98 1057.5
20260505233946 46 81 0.0 0.0 0.00 0.10 0.10 98 1057.5
20260505232445 46 90 0.0 0.0 0.00 0.10 0.10 98 1057.5
20260505230943 46 87 0.0 0.0 0.00 0.10 0.10 98 1057.5
20260505225440 46 83 0.0 0.0 0.00 0.10 0.10 98 1057.6
20260505223936 46 96 0.0 0.0 0.00 0.10 0.10 98 1057.6
20260505222431 46 82 0.0 0.0 0.00 0.10 0.10 98 1057.7
20260505220927 46 74 0.0 1.0 0.00 0.10 0.10 98 1057.5
20260505215425 46 81 0.0 0.0 0.00 0.10 0.10 98 1057.6
20260505213923 46 79 0.0 0.0 0.00 0.10 0.10 98 1057.7
20260505212420 46 82 0.0 0.0 0.00 0.10 0.10 98 1057.9
20260505210916 46 78 0.0 0.0 0.00 0.10 0.10 98 1057.7
20260505205414 46 84 0.0 0.0 0.00 0.10 0.10 98 1057.5
20260505203911 46 83 0.0 0.0 0.00 0.10 0.10 98 1057.5
20260505202411 46 45 0.0 1.0 0.00 0.10 0.10 98 1057.5
20260505200909 45 75 0.0 0.0 0.00 0.10 0.10 98 1057.2
20260505195405 46 67 0.0 1.0 0.00 0.10 0.10 98 1057.3
20260505193905 45 74 0.0 0.0 0.00 0.10 0.10 98 1057.8
20260505192404 45 82 0.0 0.0 0.00 0.10 0.10 98 1057.3
20260505190902 45 73 0.0 0.0 0.00 0.10 0.10 98 1057.5
20260505185402 45 74 0.0 0.0 0.00 0.10 0.10 98 1057.2
20260505183858 45 92 0.0 0.0 0.00 0.10 0.10 98 1057.3
20260505182354 45 89 0.0 0.0 0.00 0.10 0.10 98 1057.1
20260505180850 45 74 0.0 0.0 0.00 0.10 0.10 98 1057.0
20260505175346 44 73 0.0 0.0 0.00 0.10 0.10 98 1056.8
20260505173842 44 74 0.0 0.0 0.00 0.10 0.10 98 1056.8
20260505172339 45 76 0.0 0.0 0.00 0.10 0.10 98 1056.6
20260505170838 44 73 0.0 0.0 0.00 0.10 0.10 98 1056.4
20260505165338 44 74 0.0 0.0 0.00 0.10 0.10 98 1056.4
20260505163835 44 78 0.0 0.0 0.00 0.10 0.10 98 1056.3
20260505162333 44 78 0.0 0.0 0.00 0.10 0.10 98 1056.2
20260505160830 44 78 0.0 0.0 0.00 0.10 0.10 98 1056.6
20260505152319 43 79 0.0 0.0 0.00 0.10 0.10 98 1056.2
20260505150819 43 79 0.0 0.0 0.00 0.10 0.10 98 1056.1
20260505123751 40 78 0.0 0.0 0.00 0.10 0.10 98 1055.5
20260505122248 40 78 0.0 0.0 0.00 0.10 0.10 98 1055.5
20260505120743 40 78 0.0 0.0 0.00 0.10 0.10 98 1055.5
20260505115242 40 78 0.0 0.0 0.00 0.10 0.10 98 1055.5
20260505113738 40 78 0.0 0.0 0.00 0.10 0.10 98 1055.5
20260505112235 40 78 0.0 0.0 0.00 0.10 0.10 98 1055.4
20260505110732 40 78 0.0 0.0 0.00 0.10 0.10 98 1055.4
20260505100720 41 79 0.0 0.0 0.00 0.10 0.10 98 1055.9
20260505095217 41 79 0.0 0.0 0.00 0.10 0.10 98 1055.9
20260505093716 41 79 0.0 0.0 0.00 0.10 0.10 98 1056.0
20260505092215 41 81 0.0 0.0 0.00 0.10 0.10 98 1056.2
20260505090712 41 81 0.0 0.0 0.05 0.09 0.09 98 1056.1
20260505085212 41 81 0.0 0.0 0.07 0.06 0.06 98 1056.3
20260505083710 41 81 0.0 0.0 0.12 0.05 0.05 98 1056.6
20260505082206 41 81 0.0 0.0 0.12 0.02 0.02 98 1056.4
20260505080702 41 81 0.0 0.0 0.00 0.00 0.00 98 1056.8
20260505075202 41 81 0.0 0.0 0.00 0.00 0.00 98 1056.6
20260505073700 41 81 0.0 0.0 0.00 0.00 0.00 98 1056.8
20260505072156 41 81 0.0 0.0 0.00 0.00 0.00 98 1056.2
20260505070652 41 81 0.0 0.0 0.00 0.00 0.00 98 1056.1